This is the latest recevied weather packets stored in our database for station/object K5NAN. If no packets are shown the sender has not sent any weather packets the latest 1 day(s).
| Time | Temp. | Humidity | Pressure | Rain* | Wind** | Luminosity | Snow |
|---|---|---|---|---|---|---|---|
| 1778032168 | 22.22° C | 80% | 1004.8 hPa | 0 mm | - | 0 W/m² | - |
| 1778031865 | 22.22° C | 81% | 1004.5 hPa | 0 mm | - | 0 W/m² | - |
| 1778031561 | 22.22° C | 82% | 1005.1 hPa | 0 mm | - | 0 W/m² | - |
| 1778031260 | 22.78° C | 81% | 1005.2 hPa | 0 mm | - | 0 W/m² | - |
| 1778030652 | 22.78° C | 80% | 1004.5 hPa | 0 mm | - | 0 W/m² | - |
| 1778030349 | 22.78° C | 79% | 1004.5 hPa | 0 mm | - | 0 W/m² | - |
| 1778030046 | 22.78° C | 78% | 1004.4 hPa | 0 mm | - | 0 W/m² | - |
| 1778029442 | 23.89° C | 75% | 1004.2 hPa | 0 mm | - | 0 W/m² | - |
| 1778029138 | 23.33° C | 75% | 1004.3 hPa | 0 mm | - | 0 W/m² | - |
| 1778028229 | 24.44° C | 85% | 1004.1 hPa | 0 mm | - | 3 W/m² | - |
| 1778027621 | 24.44° C | 88% | 1004.2 hPa | 0 mm | - | 2 W/m² | - |
| 1778027318 | 24.44° C | 86% | 1004.3 hPa | 1.78 mm | - | 2 W/m² | - |
| 1778027014 | 25° C | 84% | 1004 hPa | 3.05 mm | - | 1 W/m² | - |
| 1778026407 | 26.11° C | 78% | 1003.6 hPa | 1.78 mm | - | 15 W/m² | - |
| 1778026104 | 26.67° C | 75% | 1003.2 hPa | 0 mm | - | 18 W/m² | - |
| 1778025802 | 26.67° C | 74% | 1003.2 hPa | 0 mm | - | 14 W/m² | - |
| 1778025196 | 27.22° C | 73% | 1003.2 hPa | 0 mm | - | 39 W/m² | - |
| 1778023682 | 27.78° C | 71% | 1003.3 hPa | 0 mm | - | 88 W/m² | - |
| 1778022169 | 28.89° C | 68% | 1002.9 hPa | 0 mm | - | 235 W/m² | - |
| 1778021563 | 28.33° C | 69% | 1002.9 hPa | 0 mm | - | 192 W/m² | - |
| 1778020653 | 29.44° C | 66% | 1002.5 hPa | 0 mm | - | 131 W/m² | - |
| 1778019439 | 29.44° C | 65% | 1002.5 hPa | 0 mm | - | 446 W/m² | - |
| 1778018530 | 30° C | 66% | 1002.6 hPa | 0 mm | - | 486 W/m² | - |
| 1778018228 | 30° C | 66% | 1002.9 hPa | 0 mm | - | 533 W/m² | - |
| 1778016108 | 29.44° C | 65% | 1003 hPa | 0 mm | - | 657 W/m² | - |
* Rain latest hour (hover to see other rain measurements)
** Current wind speed in m/s (hover to see current wind gust speed)